Retour au catalogue

STARLINK-5227

ActifCommunicationsVLEO
NORAD 54181·PAYLOAD·🇺🇸 United States

Lancé Oct 28, 2022 depuis Vandenberg Space Force Base

Loading…

Prochains Passages (prochaines 24 heures)

TLE

FraisSource: CelesTrak SupGP

Époque: Sep 15, 2026, 02:11 UTC

1 54181C 22141AA  26258.09145833 -.00049508  00000+0 -14629-2 0  2584
2 54181  53.1580 219.0658 0001354  89.9360 239.1909 15.34410951    19

Suivez STARLINK-5227 en temps réel avec AllMySat

Download on the App Store